Regional Weather Roundup
Issued by NWS

Home | Current Version | Previous Version | Graphics & Text | Print | Product List | Glossary Off
Versions: 1 2 3 4 5 6 7 8 9 10 11 12 13 14 15 16 17 18 19 20 21 22 23 24 25 26 27 28 29 30 31 32 33 34 35 36 37 38 39 40 41 42 43 44 45 46 47 48 49 50

000
ASUS43 KTOP 040008
RWRKS

WEATHER ROUNDUP FOR KANSAS
NATIONAL WEATHER SERVICE GOODLAND KS
600 PM CST SAT DEC 03 2016

NOTE:  "FAIR" INDICATES FEW OR NO CLOUDS BELOW 12,000 FEET WITH NO
SIGNIFICANT WEATHER AND/OR OBSTRUCTIONS TO VISIBILITY.

KSZ001>006-013>018-027>032-041>047-040100-
NORTHWEST KANSAS

CITY           SKY/WX    TMP DP  RH WIND       PRES   REMARKS
GOODLAND       CLEAR     30  24  78 S7        29.97S
6HR MIN TEMP:  30; 6HR MAX TEMP:  40;

HAYS           LGT RAIN  33  32  96 NE3       30.06S FOG
HILL CITY      CLOUDY    33  32  96 CALM      30.06S FOG
6HR MIN TEMP:  32; 6HR MAX TEMP:  34; 6HR PCP:  0.03;

RUSSELL        LGT RAIN  36  35  96 SE7       30.05S FOG
6HR MIN TEMP:  32; 6HR MAX TEMP:  36; 6HR PCP:  0.02;

$$

KSZ061>065-074>080-084>089-040100-
SOUTHWEST KANSAS

CITY           SKY/WX    TMP DP  RH WIND       PRES   REMARKS
DODGE CITY     LGT RAIN  38  38 100 S8        30.02F FOG
6HR MIN TEMP:  34; 6HR MAX TEMP:  39; 6HR PCP:  0.02;

ELKHART          N/A     35  30  82 S3          N/A
GARDEN CITY    CLOUDY    36  35  96 S3        30.00S FOG
6HR MIN TEMP:  34; 6HR MAX TEMP:  36;

GREAT BEND     LGT RAIN  38  38 100 SE6       30.06S FOG
LIBERAL        CLOUDY    39  34  81 S5        30.01S
PRATT          LGT RAIN  37  37  97 SE6       30.06S
6HR MIN TEMP:  35; 6HR MAX TEMP:  38; 6HR PCP:  0.01;

$$

KSZ066>073-081>083-090>101-040100-
SOUTHEAST KANSAS

CITY           SKY/WX    TMP DP  RH WIND       PRES   REMARKS
CHANUTE        CLOUDY    46  41  82 SE5       30.12F
6HR MIN TEMP:  46; 6HR MAX TEMP:  53; 6HR PCP:  0.01;

COFFEYVILLE    LGT RAIN  46  43  89 CALM      30.13S
6HR MIN TEMP:  46; 6HR MAX TEMP:  56; 6HR PCP:  0.02;

HUTCHINSON     LGT RAIN  40  40 100 E3        30.09S FOG
6HR MIN TEMP:  39; 6HR MAX TEMP:  41; 6HR PCP:  0.01;

MEDICINE LODGE   N/A     40  39  97 SE3       30.07S
NEWTON         LGT RAIN  41  39  93 CALM      30.10S
PARSONS        LGT RAIN  47  41  80 CALM      30.13F
6HR MIN TEMP:  47; 6HR MAX TEMP:  54; 6HR PCP:  0.01;

WICHITA INTL   DRIZZLE   43  39  86 SE6       30.09S
6HR MIN TEMP:  42; 6HR MAX TEMP:  44; 6HR PCP: TRACE;

WICHITA JABRA  CLOUDY    42  38  85 SE3       30.09F
6HR MIN TEMP:  42; 6HR MAX TEMP:  45; 6HR PCP: TRACE;

WICHITA MCCONL CLOUDY    43  38  84 E5        30.08F
WINFIELD       LGT RAIN  43  41  93 NE6       30.10F
6HR MIN TEMP:  43; 6HR MAX TEMP:  46; 6HR PCP:  0.05;

$$

KSZ007>012-019>026-033>040-048>060-102>105-040100-
NORTHEAST KANSAS

CITY           SKY/WX    TMP DP  RH WIND       PRES   REMARKS
CONCORDIA      LGT RAIN  35  35 100 SE8       30.09S FOG
6HR MIN TEMP:  33; 6HR MAX TEMP:  35; 6HR PCP:  0.14;

EMPORIA        CLOUDY    43  37  79 N3        30.11S
6HR MIN TEMP:  43; 6HR MAX TEMP:  47; 6HR PCP: TRACE;

LAWRENCE       CLOUDY    45  34  65 NE5       30.13S
6HR MIN TEMP:  45; 6HR MAX TEMP:  48;

MANHATTAN      LGT RAIN  39  37  92 CALM      30.12S FOG
6HR MIN TEMP:  38; 6HR MAX TEMP:  39; 6HR PCP:  0.08;

MARYSVILLE     LGT RAIN  34  34 100 E3        30.11F
OLATHE IND     CLOUDY    46  32  58 SE6       30.13F
6HR MIN TEMP:  46; 6HR MAX TEMP:  48;

OLATHE EXE     CLOUDY    45  31  58 SE7       30.13F
6HR MIN TEMP:  44; 6HR MAX TEMP:  48;

SALINA         LGT RAIN  40  38  93 E7        30.10F FOG
6HR MIN TEMP:  38; 6HR MAX TEMP:  40; 6HR PCP:  0.13;

TOPEKA BILLARD LGT RAIN  43  35  73 CALM      30.13F
6HR MIN TEMP:  43; 6HR MAX TEMP:  48; 6HR PCP: TRACE;

TOPEKA FORBES  LGT RAIN  44  38  79 CALM      30.13S
6HR MIN TEMP:  44; 6HR MAX TEMP:  49; 6HR PCP: TRACE;

$$




USA.gov is the U.S. government's official web portal to all federal, state and local government web resources and services.